Location: ??
(35.5990°N, 139.7298°E)
Time: 14:21:51
(UTC+00:00)

STARLINK-1353 - Pass Details

Date: 07 June 2020
Orbit: 531 x 535 km, 53.0° (Epoch: 12 July)

Event Time Altitude Azimuth Distance (km) Brightness Sun altitude
Rises 11:25:16 0° 219° (SW) 2,657 7.1 -15.6°
Reaches altitude 10° 11:27:28 10° 217° (SW) 1,771 6.1 -15.9°
Maximum altitude 11:31:28 70° 134° (SE) 568 3.4 -16.5°
Drops below altitude 10° 11:35:30 10° 51° (NE) 1,784 6.2 -17.1°
Sets 11:37:43 0° 49° (NE) 2,678 7.1 -17.4°
